Wind_Speed
18 18 18 16 16 14 15 13 11 10 8 9 9 8 9 12 11 1 5 7 7 11 17 13 12 11 12 12 9 11 5 9 11 12 13 14 15 15 16 18 15 14 13 13 14 15 18 9 5 7 6 6 10 11
15 16 16 16 16 16 14 14 13 12 9 8 7 8 8 9 12 6 2 3 6 12 17 13 14 16 19 20 17 13 16 12 6 7 10 11 13 14 15 14 15 15 15 11 10 4 2 3 2 3 6 7 8 8
16 18 17 17 17 15 15 16 15 14 13 9 8 7 7 8 10 5 6 8 7 13 22 22 19 16 21 23 19 19 17 16 18 16 15 11 14 9 13 13 14 11 12 9 14 12 12 12 7 7 5 6 8 11
16 13 13 14 17 16 16 16 15 16 14 10 10 8 7 9 9 7 7 7 10 9 9 8 6 11 12 14 21 25 24 23 15 15 16 11 13 10 12 15 10 8 7 14 11 15 21 16 11 17 5 9 12 13
15 13 13 14 12 12 13 15 15 15 16 12 11 8 9 9 8 10 11 12 12 10 7 14 20 24 21 16 18 22 26 26 24 17 9 12 22 17 15 11 12 13 14 10 11 16 12 13 13 12 13 16 15 15
16 14 14 13 13 14 14 12 13 13 14 13 12 8 8 8 6 6 3 4 8 10 9 5 6 12 12 15 22 25 24 27 26 24 19 25 34 22 11 15 20 22 24 22 19 19 20 16 15 16 19 18 16 13
15 17 16 13 10 11 12 11 11 11 12 12 12 11 9 9 8 10 4 5 12 9 6 7 6 9 7 14 19 22 23 24 24 26 26 26 29 25 14 16 21 16 12 13 14 13 15 17 17 15 16 17 13 14
12 12 14 12 9 11 10 11 11 10 10 10 11 10 9 9 11 14 12 11 11 9 5 5 5 14 11 12 16 20 23 26 24 14 16 21 28 22 6 23 27 25 19 14 16 18 19 14 14 14 16 16 16 14
11 10 13 13 9 8 10 10 10 10 9 10 8 6 6 8 7 5 12 11 7 7 4 7 9 7 2 13 16 16 17 6 15 15 18 11 7 6 12 24 22 16 10 13 10 9 11 15 12 12 13 17 16 15
13 10 11 12 11 9 10 12 11 9 10 9 6 5 5 6 9 6 7 7 7 8 8 7 17 9 13 4 5 6 11 3 4 15 19 17 16 30 25 21 15 11 10 12 12 14 16 10 10 9 9 12 15 14
12 11 11 13 11 12 12 13 14 12 12 8 6 6 5 9 9 7 7 7 9 5 8 15 26 17 17 8 7 7 4 6 5 9 14 7 8 21 37 7 7 9 13 14 14 13 12 12 12 11 10 10 9 11
12 12 12 15 12 15 14 17 16 16 8 7 4 5 4 5 6 5 5 5 6 5 10 12 12 15 12 7 5 3 1 4 5 12 6 14 2 9 11 10 6 7 10 11 12 10 11 11 12 12 11 11 11 10
11 12 12 13 14 17 18 19 14 14 8 5 4 4 5 6 6 6 10 5 5 7 4 6 4 8 10 9 3 4 6 10 7 3 3 4 16 13 9 8 5 6 7 8 7 6 9 9 9 11 13 12 9 10
9 11 11 12 14 16 18 15 15 11 6 4 2 4 4 5 7 9 9 4 1 2 4 4 2 5 8 6 3 6 4 4 3 2 1 4 9 10 8 4 3 2 1 1 0 1 2 2 2 4 10 6 6 7
8 13 11 14 16 16 15 16 14 11 5 3 4 5 8 12 10 8 11 11 6 6 6 5 5 4 2 2 4 4 3 3 3 1 3 6 9 6 4 4 2 1 1 2 2 6 7 6 6 5 6 12 14 12
13 13 14 16 17 15 15 15 13 8 4 5 7 5 10 12 7 8 11 11 9 9 7 7 2 4 5 2 5 6 1 3 4 5 7 6 5 3 2 1 1 1 1 1 3 8 7 5 8 13 15 16 13 11
15 10 17 16 15 14 13 10 9 6 5 4 6 10 14 14 14 15 11 11 7 6 5 5 6 6 3 6 3 5 4 6 6 7 5 3 3 1 2 3 3 6 7 7 7 11 11 12 12 12 15 13 12 13
5 17 17 18 17 14 14 6 4 5 6 8 9 7 5 13 17 16 9 11 6 7 5 2 6 3 4 2 3 6 10 8 9 8 7 10 9 8 9 10 12 13 12 12 13 12 11 11 12 15 14 13 14 15
15 18 15 15 13 11 6 7 6 4 8 8 12 16 14 13 14 15 17 15 10 8 7 5 3 1 3 7 11 7 5 8 9 10 12 13 13 13 14 14 13 13 14 15 16 16 15 14 15 14 13 15 19 17
14 14 15 17 10 4 3 4 5 5 4 3 7 9 8 8 7 8 6 7 5 3 3 4 4 6 9 9 7 6 7 9 12 14 13 15 16 15 15 13 12 13 14 15 14 14 13 15 13 13 13 12 13 12
12 15 17 5 8 6 5 4 6 6 4 4 9 12 6 8 8 9 6 4 3 2 4 6 8 7 8 8 8 9 10 12 13 13 13 14 11 11 12 11 12 16 13 12 12 10 11 11 11 10 11 13 10 8
10 15 4 5 4 3 5 4 5 7 3 6 7 7 4 7 13 12 14 11 4 5 3 6 7 8 10 12 13 13 15 16 17 18 18 16 14 10 10 9 9 9 8 8 8 10 10 8 8 7 8 8 8 7
9 4 4 4 3 3 4 7 3 4 2 8 8 4 4 4 4 4 5 6 4 4 2 5 6 7 12 14 15 15 18 19 19 19 14 13 11 9 10 10 9 9 8 8 6 5 5 6 5 6 6 6 4 4
1 2 3 3 2 3 5 3 2 2 2 1 2 2 3 5 6 6 4 5 9 9 6 3 6 10 12 12 15 17 16 15 14 12 9 10 11 10 10 11 10 10 9 8 8 7 6 6 7 5 3 3 3 2
3 4 4 6 5 4 4 2 4 3 1 3 6 4 3 2 4 4 3 5 12 15 14 15 13 11 12 11 10 8 6 3 8 10 8 5 6 9 9 9 10 9 8 7 7 7 6 6 5 4 3 2 2 2
4 5 6 5 1 2 2 4 4 8 9 7 4 4 4 5 5 3 3 6 8 10 13 13 12 15 11 10 8 7 8 9 5 5 6 7 7 9 7 6 7 8 7 6 5 5 4 4 3 2 2 3 4 2
2 6 4 2 5 4 5 10 11 7 5 4 3 3 3 4 4 5 3 6 7 7 8 10 11 11 8 8 8 6 5 5 5 5 4 4 5 6 6 6 4 4 5 5 4 4 3 3 2 2 1 1 2 2
6 9 7 11 11 14 8 5 5 4 4 4 4 6 3 2 1 2 6 8 9 9 9 8 5 5 5 7 6 5 4 3 3 2 2 2 4 5 5 3 4 3 1 3 5 3 3 3 3 3 3 3 3 4
4 6 6 6 5 5 6 6 5 4 3 2 5 3 4 4 6 6 5 7 6 6 5 6 5 3 3 4 5 5 5 4 4 3 4 4 3 7 6 3 2 2 1 3 1 1 6 2 5 2 3 3 4 5
9 14 18 18 13 6 9 11 16 15 16 17 17 17 15 14 12 8 6 3 4 6 5 6 6 6 5 5 5 6 7 6 5 5 5 4 4 3 3 2 1 1 1 1 3 5 8 9 6 6 5 5 5 6
7 14 16 19 17 16 13 13 15 13 13 13 13 14 12 10 8 6 5 4 4 3 3 4 6 7 7 6 5 4 6 7 8 7 7 4 4 4 3 3 3 1 2 2 3 4 5 5 4 5 5 6 7 9
9 9 12 10 11 9 9 9 9 9 6 5 5 5 7 6 5 5 5 3 2 1 3 4 5 5 5 5 6 6 7 4 4 4 5 4 4 5 5 4 3 3 4 4 5 5 6 6 6 6 6 7 8 9
7 5 4 6 3 3 3 3 3 3 3 5 4 5 6 8 7 5 3 5 2 2 2 2 3 3 2 3 2 3 3 3 7 8 8 6 4 4 5 3 3 5 5 5 6 6 5 5 5 7 7 8 10 10
Wind_Direction
274 274 271 270 269 269 270 262 261 263 280 299 305 294 305 326 327 259 247 242 243 273 278 272 277 282 269 252 269 28 263 222 262 230 248 252 255 256 254 244 243 232 224 229 234 250 257 110 174 253 42 316 303 312
269 274 271 270 270 263 261 260 252 251 263 271 296 287 287 306 325 329 245 223 243 254 265 278 265 254 252 259 283 277 280 302 318 262 239 254 258 256 261 251 208 241 259 281 293 28 35 36 12 337 329 318 305 283
278 280 272 269 263 264 256 254 249 246 254 258 273 284 270 286 309 284 256 274 265 269 283 263 265 267 253 245 239 254 249 265 270 288 300 292 274 256 256 226 251 255 231 238 267 262 268 252 237 281 259 301 306 299
275 265 266 273 264 254 252 253 245 247 246 247 251 270 261 267 287 301 254 248 247 271 283 272 257 259 253 241 236 235 242 255 271 288 267 266 273 264 265 282 269 261 216 222 246 250 267 270 260 272 273 279 294 290
264 261 274 278 268 257 258 250 241 241 235 236 244 260 262 258 276 292 263 254 227 235 316 310 295 279 256 242 238 234 233 240 246 247 260 257 265 271 273 272 256 258 249 253 253 264 262 272 283 287 277 267 282 281
254 261 266 274 264 255 253 238 237 234 228 233 237 250 255 244 275 298 281 212 222 230 280 283 252 268 252 245 233 233 232 232 241 249 247 263 263 261 279 266 257 251 255 266 275 272 271 272 281 279 270 267 265 277
262 256 254 259 256 249 238 230 228 228 224 229 228 234 244 248 244 229 297 193 183 193 240 272 285 212 220 236 232 225 225 234 225 232 240 249 261 270 246 252 262 263 249 245 259 266 261 263 273 264 257 248 249 267
260 250 239 244 251 237 232 227 217 214 217 223 217 226 240 254 265 270 243 175 193 200 257 272 258 275 234 246 217 222 222 221 223 224 245 227 245 236 245 254 245 258 266 274 271 257 259 261 270 266 256 248 250 243
247 248 240 236 234 232 224 209 201 197 200 196 206 222 248 246 238 251 205 211 174 204 244 263 259 299 327 270 255 212 225 203 235 226 219 236 265 247 240 244 247 248 228 241 229 238 254 258 279 273 256 235 237 228
239 245 233 225 222 223 207 197 190 189 185 181 179 216 232 206 207 164 156 197 217 215 222 245 268 274 276 280 272 275 198 208 234 228 227 226 222 247 245 238 213 214 223 241 244 249 253 237 259 258 273 246 228 229
238 237 235 220 220 215 202 191 183 177 173 184 212 223 224 166 185 195 199 209 191 224 221 241 237 252 244 250 274 290 283 201 233 226 195 204 263 239 227 194 231 214 237 242 245 251 256 255 261 265 257 251 235 223
246 240 233 213 219 200 194 190 188 184 191 208 210 243 210 207 212 224 201 195 211 241 192 230 243 228 233 226 240 211 51 306 253 313 185 232 210 48 145 182 176 210 224 230 234 240 243 251 256 259 251 244 228 223
233 222 210 206 207 193 195 191 187 193 219 239 239 235 195 206 228 232 201 190 207 220 213 208 213 193 204 198 222 265 219 218 229 184 274 32 149 187 138 121 156 215 231 254 251 246 255 257 265 256 244 233 211 211
202 191 209 177 182 185 180 180 182 184 180 207 232 258 239 219 223 222 249 41 275 295 261 204 150 222 192 180 134 268 238 297 345 270 51 101 97 94 96 96 132 167 138 164 106 101 49 24 331 297 246 190 180 163
187 175 167 168 165 168 174 175 178 180 212 220 219 236 229 251 278 308 313 315 280 270 257 237 227 288 196 245 218 266 2 303 263 90 109 90 106 101 96 69 74 124 109 172 141 131 95 45 29 61 119 108 110 110
159 155 163 164 167 167 166 170 173 201 225 225 224 254 274 280 314 310 302 285 268 253 241 225 242 211 202 254 240 216 214 3 61 98 108 112 115 91 353 237 151 260 179 145 153 165 155 109 104 120 117 105 106 116
157 163 162 161 159 153 160 164 189 221 242 235 241 248 254 276 277 282 274 282 284 262 218 210 218 222 189 204 211 148 117 117 117 96 73 65 69 102 129 134 125 117 104 105 120 139 134 119 110 112 115 117 123 97
150 155 157 154 154 158 179 207 223 239 245 253 272 279 263 270 277 279 277 290 267 244 252 295 301 294 355 53 62 98 78 69 68 66 77 76 67 78 91 88 91 95 96 97 98 112 117 113 113 111 113 116 123 130
150 155 155 155 154 176 200 211 222 253 243 255 264 275 263 263 265 265 274 269 256 260 289 287 294 46 60 67 82 84 81 65 85 88 85 80 73 77 79 82 88 87 83 84 88 91 98 106 109 106 109 116 113 110
146 149 157 171 169 241 252 208 207 254 260 259 261 284 289 279 279 272 241 230 213 336 357 16 29 56 96 96 106 87 83 94 107 104 86 77 83 74 72 79 90 98 97 91 87 91 96 103 105 108 115 118 118 113
139 160 160 193 275 247 252 263 222 245 280 318 290 283 271 254 238 223 155 143 90 27 63 44 43 78 85 79 82 84 85 98 95 105 107 104 81 87 80 73 72 85 92 82 81 93 88 92 103 106 106 110 111 107
175 168 192 271 274 264 259 258 278 288 251 286 327 328 245 108 92 75 113 93 66 18 38 5 28 65 85 90 89 91 96 98 97 96 97 98 81 74 64 55 61 60 59 65 77 100 89 88 92 96 102 104 107 102
158 210 261 251 260 262 276 320 292 0 327 335 349 20 17 74 72 91 64 33 72 72 358 63 71 87 100 99 90 88 100 101 102 102 95 83 74 69 63 58 57 57 64 61 62 64 72 94 97 95 107 110 102 94
264 284 290 305 286 268 275 273 263 309 326 356 38 21 40 69 88 64 63 50 33 34 53 91 115 107 105 106 98 104 107 112 104 104 104 82 75 68 62 58 57 58 62 63 66 75 83 95 107 102 97 92 84 48
284 238 222 249 231 229 241 158 201 196 179 140 114 113 77 89 74 67 33 23 30 39 54 74 88 99 107 108 110 87 92 83 90 92 88 89 90 84 73 61 54 52 52 60 64 72 77 83 86 84 76 57 35 23
237 213 209 310 100 174 261 103 101 114 108 84 70 72 76 58 37 38 47 26 48 49 55 68 89 110 102 105 92 72 77 58 104 64 66 51 40 41 48 38 51 48 45 53 63 71 75 75 68 56 41 51 57 55
297 25 325 300 344 27 65 52 67 73 68 59 79 74 60 67 43 0 39 46 69 67 63 72 71 87 76 74 67 67 64 47 56 62 60 50 42 34 27 31 53 51 38 49 59 68 64 54 35 12 344 318 324 327
7 12 1 354 25 33 36 35 61 30 36 17 49 37 50 66 29 65 86 82 70 67 70 68 98 67 75 52 39 36 34 28 49 92 61 81 45 40 39 25 24 125 86 126 84 61 48 25 11 354 337 311 301 306
1 348 4 50 67 57 36 26 37 46 11 80 106 104 100 105 111 106 104 121 101 87 78 77 64 67 63 49 37 26 14 358 352 318 294 310 91 21 12 22 12 63 346 348 297 343 -0 2 13 342 337 329 322 319
61 77 84 79 68 56 61 88 81 77 96 102 106 103 102 99 97 103 95 85 64 62 65 69 60 45 36 30 47 41 38 43 51 36 37 45 13 354 8 18 42 15 289 320 323 313 351 3 330 345 335 334 323 319
84 91 76 75 79 83 78 82 94 91 91 95 101 105 107 108 98 76 65 57 55 62 67 57 42 30 28 31 31 50 60 44 46 56 74 57 41 40 48 49 39 2 330 320 324 320 317 332 323 319 315 318 320 326
74 60 81 90 101 98 103 119 118 112 112 123 132 124 146 154 80 76 19 10 341 10 33 15 25 28 38 45 55 71 89 67 56 56 70 71 63 61 45 28 18 9 351 340 328 321 310 311 311 314 317 318 320 322
112 92 55 74 79 77 63 59 95 121 130 95 55 52 50 43 52 52 22 12 22 17 31 30 25 358 33 76 79 62 65 66 36 35 32 32 51 113 48 6 346 354 342 338 333 327 326 323 320 316 318 317 317 316
Height
1511 1510 1510 1511 1511 1511 1512 1512 1512 1513 1513 1513 1512 1512 1511 1510 1507 1509 1511 1511 1513 1508 1500 1501 1501 1499 1496 1495 1488 1486 1485 1486 1484 1481 1476 1469 1464 1457 1456 1455 1459 1466 1473 1472 1469 1472 1475 1460 1466 1472 1475 1476 1476 1476
1505 1505 1505 1505 1506 1507 1507 1509 1509 1510 1511 1511 1511 1510 1510 1509 1508 1507 1512 1511 1511 1511 1500 1500 1498 1497 1498 1498 1497 1492 1487 1486 1477 1473 1470 1467 1462 1456 1455 1458 1452 1467 1463 1463 1463 1470 1469 1469 1470 1472 1472 1474 1475 1475
1499 1499 1499 1499 1500 1501 1502 1504 1505 1507 1508 1509 1509 1508 1509 1508 1508 1507 1510 1510 1510 1508 1499 1492 1490 1490 1491 1493 1495 1495 1490 1489 1486 1485 1481 1471 1463 1454 1453 1449 1453 1453 1459 1465 1467 1461 1463 1466 1470 1470 1472 1474 1474 1473
1494 1494 1495 1495 1495 1496 1497 1499 1500 1502 1504 1505 1506 1506 1506 1506 1506 1506 1508 1509 1509 1507 1498 1484 1485 1486 1487 1488 1489 1490 1492 1489 1491 1489 1485 1476 1465 1458 1455 1449 1447 1447 1450 1458 1460 1463 1464 1463 1466 1467 1469 1473 1473 1471
1489 1489 1490 1490 1491 1491 1492 1493 1495 1498 1500 1502 1503 1504 1504 1504 1504 1503 1504 1504 1506 1508 1497 1488 1483 1481 1482 1483 1484 1485 1486 1488 1488 1487 1485 1479 1471 1464 1457 1452 1446 1447 1450 1453 1453 1455 1458 1460 1463 1465 1467 1469 1470 1468
1483 1485 1486 1486 1486 1487 1488 1490 1492 1494 1497 1499 1500 1501 1502 1502 1503 1504 1501 1501 1502 1505 1503 1485 1474 1474 1474 1476 1476 1479 1480 1482 1483 1480 1479 1478 1469 1465 1462 1452 1449 1449 1451 1453 1452 1455 1457 1460 1463 1466 1466 1465 1465 1464
1478 1479 1481 1482 1482 1483 1485 1487 1489 1491 1493 1496 1497 1499 1499 1500 1501 1502 1500 1497 1498 1502 1501 1485 1467 1460 1468 1468 1470 1471 1475 1473 1475 1476 1474 1474 1465 1461 1455 1451 1446 1445 1447 1452 1455 1456 1457 1459 1459 1459 1459 1460 1460 1461
1474 1475 1477 1478 1479 1481 1482 1484 1486 1488 1491 1493 1495 1497 1498 1498 1498 1496 1495 1495 1496 1499 1498 1485 1469 1463 1460 1460 1462 1464 1464 1466 1467 1470 1469 1466 1462 1456 1461 1446 1445 1444 1445 1446 1449 1451 1451 1453 1454 1454 1454 1454 1456 1455
1470 1471 1473 1475 1477 1478 1480 1482 1484 1486 1489 1491 1494 1495 1496 1495 1494 1492 1493 1495 1496 1499 1494 1481 1466 1459 1461 1459 1455 1455 1455 1458 1461 1455 1458 1461 1456 1447 1439 1439 1439 1439 1441 1445 1445 1446 1447 1447 1448 1448 1448 1449 1449 1449
1466 1468 1469 1471 1474 1476 1478 1480 1483 1485 1488 1491 1493 1494 1492 1489 1489 1491 1494 1495 1494 1491 1490 1482 1472 1464 1463 1464 1460 1455 1447 1458 1453 1445 1447 1440 1437 1436 1432 1430 1434 1436 1441 1444 1444 1445 1444 1442 1445 1445 1443 1443 1444 1445
1463 1464 1466 1468 1471 1474 1476 1478 1481 1484 1487 1490 1490 1488 1486 1487 1489 1489 1488 1487 1484 1483 1478 1468 1466 1460 1459 1457 1457 1449 1448 1441 1442 1427 1430 1435 1433 1422 1425 1428 1432 1435 1439 1440 1441 1442 1442 1443 1444 1443 1442 1443 1439 1444
1459 1460 1462 1465 1468 1471 1474 1477 1480 1483 1485 1486 1485 1485 1485 1485 1484 1481 1476 1473 1471 1460 1454 1455 1453 1455 1453 1459 1462 1456 1461 1455 1439 1429 1422 1412 1420 1411 1419 1425 1428 1433 1435 1436 1437 1438 1440 1441 1441 1441 1441 1441 1442 1443
1456 1457 1459 1462 1465 1468 1472 1475 1478 1482 1484 1486 1486 1483 1481 1480 1477 1467 1455 1455 1457 1452 1450 1452 1452 1452 1453 1456 1458 1453 1440 1433 1409 1410 1406 1402 1420 1425 1425 1426 1432 1434 1435 1436 1436 1437 1437 1437 1437 1438 1438 1438 1437 1441
1453 1455 1458 1460 1463 1466 1471 1475 1479 1482 1484 1484 1484 1481 1474 1465 1455 1445 1441 1445 1450 1450 1452 1451 1452 1449 1446 1449 1453 1450 1431 1424 1422 1422 1419 1422 1421 1424 1428 1431 1433 1434 1435 1436 1437 1438 1437 1437 1436 1435 1434 1432 1436 1440
1453 1456 1458 1461 1464 1468 1472 1475 1479 1482 1482 1482 1480 1473 1460 1451 1446 1448 1446 1447 1448 1450 1451 1449 1448 1446 1445 1446 1445 1435 1435 1431 1427 1424 1427 1429 1430 1431 1432 1434 1434 1435 1435 1435 1437 1438 1437 1436 1435 1435 1434 1433 1440 1443
1454 1457 1459 1463 1466 1470 1473 1476 1478 1480 1479 1477 1473 1467 1459 1456 1453 1453 1452 1451 1450 1449 1449 1448 1446 1441 1444 1445 1437 1428 1425 1432 1428 1429 1431 1432 1433 1433 1434 1434 1435 1435 1435 1435 1436 1438 1437 1437 1438 1439 1439 1440 1443 1445
1456 1458 1460 1465 1468 1471 1474 1477 1479 1478 1474 1469 1464 1461 1461 1460 1457 1454 1452 1449 1448 1447 1443 1441 1435 1427 1432 1426 1420 1422 1424 1428 1429 1431 1433 1434 1434 1434 1435 1435 1436 1436 1436 1437 1437 1438 1440 1441 1442 1443 1443 1445 1448 1448
1457 1459 1463 1466 1469 1472 1474 1474 1476 1473 1468 1463 1459 1458 1457 1456 1454 1450 1449 1447 1447 1444 1440 1434 1431 1423 1418 1420 1424 1430 1432 1432 1432 1435 1436 1436 1437 1437 1437 1437 1438 1438 1439 1439 1440 1440 1441 1443 1445 1446 1447 1449 1449 1451
1460 1461 1465 1468 1471 1473 1473 1473 1471 1466 1461 1459 1457 1454 1453 1450 1448 1447 1446 1444 1443 1442 1441 1435 1430 1430 1431 1434 1436 1437 1436 1437 1438 1440 1440 1441 1441 1442 1442 1443 1443 1443 1444 1444 1445 1445 1446 1447 1448 1450 1450 1452 1453 1455
1462 1465 1467 1468 1470 1470 1467 1465 1465 1462 1458 1455 1453 1451 1449 1447 1445 1444 1443 1442 1443 1441 1440 1439 1439 1439 1439 1440 1439 1440 1440 1441 1442 1444 1446 1446 1447 1447 1447 1448 1447 1447 1448 1449 1450 1450 1452 1453 1454 1455 1456 1456 1457 1459
1466 1467 1469 1470 1469 1467 1465 1460 1459 1456 1454 1453 1452 1449 1446 1444 1443 1440 1439 1442 1443 1444 1444 1446 1445 1443 1443 1443 1443 1444 1444 1445 1446 1448 1450 1451 1452 1452 1452 1451 1452 1452 1453 1453 1454 1454 1455 1455 1456 1457 1457 1459 1461 1463
1467 1470 1471 1469 1468 1465 1462 1458 1457 1455 1453 1451 1448 1445 1441 1439 1441 1442 1443 1445 1449 1451 1450 1450 1449 1448 1448 1448 1448 1449 1450 1451 1452 1453 1454 1456 1456 1456 1456 1455 1455 1456 1456 1456 1456 1456 1457 1459 1459 1460 1461 1463 1464 1464
1471 1471 1469 1467 1466 1463 1460 1457 1455 1454 1452 1449 1448 1446 1445 1444 1447 1447 1449 1452 1454 1454 1452 1452 1451 1452 1453 1453 1454 1455 1455 1456 1457 1458 1460 1460 1461 1460 1460 1460 1459 1459 1459 1459 1459 1459 1459 1460 1461 1462 1464 1465 1465 1466
1471 1469 1467 1465 1464 1462 1459 1455 1454 1454 1454 1453 1453 1452 1448 1447 1449 1449 1454 1457 1458 1456 1455 1454 1455 1456 1457 1458 1459 1460 1460 1461 1461 1461 1462 1462 1463 1464 1463 1463 1463 1462 1462 1462 1462 1462 1462 1463 1463 1464 1466 1466 1466 1466
1472 1468 1467 1463 1460 1459 1454 1452 1453 1453 1451 1447 1445 1446 1449 1449 1450 1458 1462 1463 1462 1460 1459 1458 1459 1460 1461 1462 1463 1464 1464 1464 1464 1464 1465 1463 1463 1463 1464 1465 1466 1465 1465 1465 1465 1465 1465 1465 1466 1466 1467 1467 1467 1468
1469 1463 1462 1452 1448 1449 1446 1447 1447 1447 1444 1446 1448 1451 1452 1456 1464 1465 1466 1467 1466 1465 1465 1465 1465 1465 1466 1467 1466 1467 1467 1467 1467 1467 1467 1467 1466 1466 1466 1467 1467 1468 1468 1467 1467 1467 1468 1468 1468 1468 1468 1468 1468 1468
1462 1457 1456 1452 1448 1445 1444 1445 1446 1447 1448 1451 1452 1453 1455 1462 1468 1471 1471 1470 1469 1469 1469 1469 1469 1469 1469 1469 1469 1470 1470 1470 1470 1470 1470 1470 1470 1470 1470 1469 1470 1470 1470 1470 1469 1469 1469 1469 1469 1469 1469 1469 1469 1469
1465 1464 1462 1459 1455 1454 1455 1453 1454 1457 1456 1458 1458 1463 1469 1473 1476 1474 1473 1473 1472 1472 1473 1472 1471 1472 1472 1472 1472 1471 1471 1471 1471 1471 1471 1471 1471 1471 1471 1471 1471 1470 1470 1469 1470 1471 1470 1470 1469 1469 1468 1468 1468 1467
1469 1467 1465 1462 1461 1462 1463 1462 1462 1463 1464 1462 1465 1468 1472 1475 1476 1476 1476 1476 1476 1475 1474 1474 1474 1474 1474 1474 1473 1473 1472 1471 1471 1471 1471 1469 1470 1471 1472 1472 1471 1471 1471 1471 1470 1470 1469 1469 1468 1467 1468 1467 1466 1466
1469 1467 1465 1465 1465 1468 1470 1468 1467 1467 1466 1467 1470 1471 1473 1475 1477 1478 1477 1477 1476 1477 1477 1476 1476 1475 1475 1474 1474 1475 1474 1474 1473 1472 1471 1472 1473 1473 1472 1472 1472 1472 1472 1471 1471 1469 1468 1467 1467 1466 1467 1467 1466 1465
1475 1475 1473 1473 1473 1474 1474 1475 1474 1474 1473 1474 1474 1476 1477 1477 1479 1479 1479 1479 1478 1478 1477 1477 1478 1478 1477 1476 1476 1475 1476 1476 1475 1474 1474 1474 1474 1473 1473 1473 1473 1472 1472 1471 1471 1470 1470 1469 1468 1467 1467 1466 1465 1464
1478 1478 1478 1478 1479 1480 1480 1479 1478 1478 1478 1477 1476 1475 1475 1476 1477 1480 1482 1481 1479 1478 1479 1479 1478 1479 1479 1479 1478 1477 1477 1477 1477 1476 1475 1475 1475 1474 1474 1474 1473 1472 1472 1471 1470 1470 1469 1468 1467 1466 1465 1464 1463 1462
1482 1482 1481 1481 1482 1482 1481 1479 1478 1477 1475 1474 1475 1474 1475 1476 1479 1482 1483 1482 1482 1481 1480 1481 1481 1480 1479 1479 1479 1479 1478 1477 1476 1475 1474 1473 1473 1472 1472 1473 1473 1472 1471 1470 1469 1468 1467 1466 1465 1464 1463 1462 1461 1459